DELTA 1 DEB, 42655

Orbit data source: Space-Track

DELTA 1 DEB, 42655 is space debris in SSO originally from a launch on Thu, 12 Jun 1975 UTC launched from the Air Force Western Test Range (AFWTR). Debris objects in space refer to the collection of defunct objects orbiting the Earth. Examples of debris include non-operational satellites, rocket bodies, and fragments generated from explosions, collisions, or faulty payload assembly.

Loading next visibility...
Identifier
42655, 1975-052MQ
Orbit
SSO
Country
Flag of USUS
Related business
Manufacturer
Unknown
Mission
Spacecraft
Bus & Motor
Unknown
Mass
Unknown
Launch date (UTC)
1975-06-12 (50 years ago)
Launch vehicle
Unknown
Launch site
Air Force Western Test Range (AFWTR)
Object type
Payload
Rocket body
Debris
Shape & HBR
Unknown shape, 0.1 m
Radar Cross Section
Small (<0.1 m²)

Expand to show TLE details & history
Last TLE update: 2 days ago

TLE from 2 days ago
0 DELTA 1 DEB
1 42655U 75052MQ  25286.74115556 -.00000126  00000-0 -13591-3 0  9991
2 42655  99.5817 288.6079 0569568 312.7278  42.7195 12.98460635563727
Epoch: 2025-10-13T17:47Z
TLE epoch observation values (Epoch: 2025-10-13T17:47:15.840Z)
Latitude
Longitude
-0.74769°
Altitude
963.013 km
Speed
7.517 km/s
True Right ascension
19h 14m 25s
True Declination
0° 00' 00"
Sunlit
Object was in daylight at epoch
Visualization orbit readout
Latitude
Unknown
Longitude
Unknown
Altitude
Unknown
Speed
Unknown
Apparent Right ascension
Unknown
Apparent Declination
Unknown
Sunlit
N/A
Visualization observer readout
Local Sidereal Time
04:37:56
Azimuth
Unknown
Elevation
Unknown
Doppler factor
Unknown
Orbital elements
Apogee altitude
1,700.835 km
Perigee altitude
830.123 km
Semi-major axis
7,643.616 km
Eccentricity
0.05696
Inclination
99.5817°
RAAN
288.6079°
Arg. of periapsis
312.7278°
True anomaly
47.38594°
Mean anomaly
42.7195°
Eccentric anomaly
45.0282°
Mean motion
3.24784 °/min
Orbital period
110.84 mins
BSTAR
-0.00013591
Loading maneuver chart data...
Computing Atmospheric mass density...
Loading historical data...
Loading historical data...
Loading historical data...
Loading historical data...
Loading historical data...
Loading historical data...
Loading historical data...

Documentation

Showing up to 5 results
|